Back to catalog

TITAN 3C TRANSTAGE DEB

LostHEO
NORAD 28551·DEBRIS·🇺🇸 United States

Launched Dec 21, 1965 from Cape Canaveral Space Force Station

Loading…

Next Passes (next 24 hours)

TLE

StaleSource: Space-Track

Epoch: Jan 13, 2026, 10:34 UTC

1 28551U 65108BS  26013.44092678  .00000029  00000-0  43606-3 0  9996
2 28551  27.1101 317.2964 5967277 171.2314 207.6937  3.90380524 50710

Track TITAN 3C TRANSTAGE DEB in real time with AllMySat

Download on the App Store